Regional Weather Roundup
Issued by NWS

Home | Current Version | Previous Version | Graphics & Text | Print | Product List | Glossary On
Versions: 1 2 3 4 5 6 7 8 9 10 11 12 13 14 15 16 17 18 19 20 21 22 23 24 25 26 27 28 29 30 31 32 33 34 35 36 37 38 39 40 41 42 43 44 45 46 47 48 49 50
000
ASUS43 KBIS 070002
RWRND

NORTH DAKOTA REGIONAL WEATHER ROUNDUP
NATIONAL WEATHER SERVICE BISMARCK ND
700 PM CDT MON JUL 06 2015

NOTE: "FAIR" INDICATES FEW OR NO CLOUDS BELOW 12,000 FEET WITH NO
SIGNIFICANT WEATHER AND/OR OBSTRUCTIONS TO VISIBILITY.


NDZ001>003-009>011-017-070100-
NORTHWEST NORTH DAKOTA

CITY           SKY/WX    TMP DP  RH WIND       PRES   REMARKS
WILLISTON      MOSUNNY   72  47  40 N8        30.17F
6HR MIN TEMP:  66; 6HR MAX TEMP:  73;

MINOT          MOSUNNY   67  45  45 N12       30.16F
$$

NDZ018>021-031>035-040>046-070100-
SOUTHWEST NORTH DAKOTA

CITY           SKY/WX    TMP DP  RH WIND       PRES   REMARKS
BISMARCK       PTSUNNY   68  52  56 NE12      30.15S HAZE
6HR MIN TEMP:  68; 6HR MAX TEMP:  72;

DICKINSON      MOSUNNY   68  51  54 NE12      30.16S HAZE
GARRISON         N/A     68  48  48 N9        30.16F
6HR MIN TEMP:  61; 6HR MAX TEMP:  68;

HETTINGER ARPT MOSUNNY   72  47  40 VRB6      30.17F
$$

NDZ004>008-012>016-024-026-027-054-070100-
NORTHEAST NORTH DAKOTA

CITY           SKY/WX    TMP DP  RH WIND       PRES   REMARKS
GRAND FORKS    MOSUNNY   64  47  53 N18       30.12R
DEVILS LAKE    MOSUNNY   64  45  48 N14       30.13S
$$

NDZ022-023-025-028>030-036>039-047>053-070100-
SOUTHEAST NORTH DAKOTA

CITY           SKY/WX    TMP DP  RH WIND       PRES   REMARKS
FARGO          PTSUNNY   64  48  56 N12       30.10S
6HR MIN TEMP:  64; 6HR MAX TEMP:  69;

JAMESTOWN      MOSUNNY   65  49  56 N10G22    30.13S
$$




USA.gov is the U.S. government's official web portal to all federal, state and local government web resources and services.